CAPE
0 0 0 0 0 0 0 0 0 0 0 0 0 0 0 0 0 0 0 0 0 0 0 0 0 0 0 0 0 0 0 0 0 0 0 0 0 0 0 0 0 0 0 0
0 0 0 0 0 0 0 0 0 0 0 0 0 0 0 0 0 0 0 0 0 0 0 0 0 0 0 0 0 0 0 0 0 0 0 0 0 0 0 0 0 0 0 0
0 0 0 0 0 0 0 0 0 0 0 0 0 0 0 0 0 0 0 0 0 0 0 0 0 0 0 0 0 0 0 0 0 0 0 0 0 0 0 0 0 0 0 0
0 0 0 0 0 0 0 0 0 0 0 0 0 0 0 0 0 0 0 0 0 0 0 0 0 0 0 0 0 0 0 0 0 0 0 0 0 0 0 0 0 0 0 0
0 0 0 0 0 0 0 0 0 0 0 0 0 0 0 0 0 0 0 0 0 0 0 0 0 0 0 0 0 0 0 0 0 0 0 0 0 0 0 0 0 0 0 0
0 0 0 0 0 0 0 0 0 0 0 0 0 0 0 0 0 0 0 0 0 0 0 0 0 0 0 0 0 0 0 0 0 0 0 0 0 0 0 0 0 0 0 0
0 0 0 0 0 0 0 0 0 0 0 0 0 0 0 0 0 0 0 0 0 0 0 0 0 0 0 0 0 0 0 0 0 0 0 0 0 0 0 0 0 0 0 0
0 0 0 0 0 0 0 0 0 0 0 0 0 0 0 0 0 0 0 0 0 0 0 0 0 0 0 0 0 0 0 0 0 0 0 0 0 0 0 0 0 0 0 0
0 0 0 0 0 0 0 0 0 0 0 0 0 0 0 0 0 0 0 0 0 0 0 0 0 0 0 0 0 0 0 0 0 0 0 0 0 0 0 0 0 0 0 0
0 0 0 0 0 0 0 0 0 0 0 0 0 0 0 0 0 0 0 0 0 0 0 0 0 0 0 0 0 0 0 0 0 0 0 0 0 0 0 0 0 0 0 0
0 0 0 0 0 0 0 0 0 0 0 0 0 0 0 0 0 0 0 0 0 0 0 0 0 0 0 0 0 0 0 0 0 0 0 0 0 0 0 0 0 0 0 0
0 0 0 0 0 0 0 0 0 0 0 0 0 0 0 0 0 0 0 0 0 0 0 0 0 0 0 0 0 0 0 0 0 0 0 0 0 0 0 0 0 0 0 0
0 0 0 0 0 0 0 0 0 0 0 0 0 0 0 0 0 0 0 0 0 0 0 0 0 0 0 0 0 0 0 0 0 0 0 0 0 0 0 0 0 0 0 0
0 0 0 0 0 0 0 0 0 0 0 0 0 0 0 0 0 0 0 0 0 0 0 0 0 0 0 0 0 0 0 0 0 0 0 0 0 0 0 0 0 0 0 0
0 0 0 0 0 0 0 0 0 0 0 0 0 0 0 0 0 0 0 0 0 0 0 0 0 0 0 0 0 0 0 0 0 0 0 0 0 0 0 0 0 0 0 0
0 0 0 0 0 0 0 0 0 0 0 0 0 0 0 0 0 0 0 0 0 0 0 0 0 0 0 0 0 0 0 0 0 0 0 0 0 0 0 0 0 0 0 0
0 0 0 0 0 0 0 0 0 0 0 0 0 0 0 0 0 0 0 0 0 0 0 0 0 0 0 0 0 0 0 0 0 0 0 0 0 0 0 0 0 0 0 0
0 0 0 0 0 0 0 0 0 0 0 0 0 0 0 0 0 0 0 0 0 0 0 0 0 0 0 0 0 0 0 0 0 0 0 0 0 0 0 0 0 0 0 0
0 0 0 0 0 0 0 0 0 0 0 0 0 0 0 0 0 0 0 0 0 0 0 0 0 0 0 0 0 0 0 0 0 0 0 0 0 0 0 0 0 0 0 0
0 0 0 0 0 0 0 0 0 0 0 0 0 0 0 0 0 0 0 0 0 0 0 0 0 0 0 0 0 0 0 0 0 0 0 0 0 0 0 0 0 0 0 1
0 0 0 0 0 0 0 0 0 0 0 0 0 0 0 0 0 0 0 0 0 0 0 0 0 0 0 0 0 0 0 0 0 0 0 0 0 0 0 0 0 0 0 1
0 0 0 0 0 0 0 0 0 0 0 0 0 0 0 0 0 0 0 0 0 0 0 0 0 0 0 0 0 0 0 0 0 0 0 0 0 0 0 0 0 0 1 2
0 0 0 0 0 0 0 0 0 0 0 0 0 0 0 0 0 0 0 0 0 0 0 0 0 0 0 0 0 0 0 0 0 0 0 0 0 0 0 0 0 1 1 2
0 0 0 0 0 0 0 0 0 0 0 0 0 0 0 0 0 0 0 0 0 0 0 0 0 0 0 0 0 0 0 0 0 0 0 0 0 0 0 0 1 2 1 2
0 0 0 0 0 0 0 0 0 0 0 0 0 0 0 0 0 0 0 0 0 0 0 0 0 0 0 0 0 0 0 0 0 0 0 0 0 0 0 1 2 2 1 5
0 0 0 0 0 0 0 0 0 0 0 0 0 0 0 0 0 0 0 0 0 0 0 0 0 0 0 0 0 0 0 0 0 0 1 0 0 1 0 3 1 5 7 7
CIN
-0 -0 -0 -0 -0 -0 -0 -0 -0 -0 -0 -0 -0 -0 -0 -0 -0 -0 -0 -0 -0 -0 -0 -0 -0 -0 -0 -0 -0 -0 -0 -0 -0 -0 -0 -0 -0 -0 -0 -0 -0 -0 -0 -0
-0 -0 -0 -0 -0 -0 -0 -0 -0 -0 -0 -0 -0 -0 -0 -0 -0 -0 -0 -0 -0 -0 -0 -0 -0 -0 -0 -0 -0 -0 -0 -0 -0 -0 -0 -0 -0 -0 -0 -0 -0 -0 -0 -0
-0 -0 -0 -0 -0 -0 -0 -0 -0 -0 -0 -0 -0 -0 -0 -0 -0 -0 -0 -0 -0 -0 -0 -0 -0 -0 -0 -0 -0 -0 -0 -0 -0 -0 -0 -0 -0 -0 -0 -0 -0 -0 -0 -0
-0 -0 -0 -0 -0 -0 -0 -0 -0 -0 -0 -0 -0 -0 -0 -0 -0 -0 -0 -0 -0 -0 -0 -0 -0 -0 -0 -0 -0 -0 -0 -0 -0 -0 -0 -0 -0 -0 -0 -0 -0 -0 -0 -0
-0 -0 -0 -0 -0 -0 -0 -0 -0 -0 -0 -0 -0 -0 -0 -0 -0 -0 -0 -0 -0 -0 -0 -0 -0 -0 -0 -0 -0 -0 -0 -0 -0 -0 -0 -0 -0 -0 -0 -0 -0 -0 -0 -0
-0 -0 -0 -0 -0 -0 -0 -0 -0 -0 -0 -0 -0 -0 -0 -0 -0 -0 -0 -0 -0 -0 -0 -0 -0 -0 -0 -0 -0 -0 -0 -0 -0 -0 -0 -0 -0 -0 -0 -0 -0 -0 -0 -0
-0 -0 -0 -0 -0 -0 -0 -0 -0 -0 -0 -0 -0 -0 -0 -0 -0 -0 -0 -0 -0 -0 -0 -0 -0 -0 -0 -0 -0 -0 -0 -0 -0 -0 -0 -0 -0 -0 -0 -0 -0 -0 -0 -0
-0 -0 -0 -0 -0 -0 -0 -0 -0 -0 -0 -0 -0 -0 -0 -0 -0 -0 -0 -0 -0 -0 -0 -0 -0 -0 -0 -0 -0 -0 -0 -0 -0 -0 -0 -0 -0 -0 -0 -0 -0 -0 -0 -0
-0 -0 -0 -0 -0 -0 -0 -0 -0 -0 -0 -0 -0 -0 -0 -0 -0 -0 -0 -0 -0 -0 -0 -0 -0 -0 -0 -0 -0 -0 -0 -0 -0 -0 -0 -0 -0 -0 -0 -0 -0 -0 -0 -0
-0 -0 -0 -0 -0 -0 -0 -0 -0 -0 -0 -0 -0 -0 -0 -0 -0 -0 -0 -0 -0 -0 -0 -0 -0 -0 -0 -0 -0 -0 -0 -0 -0 -0 -0 -0 -0 -0 -0 -0 -0 -0 -0 -0
-0 -0 -0 -0 -0 -0 -0 -0 -0 -0 -0 -0 -0 -0 -0 -0 -0 -0 -0 -0 -0 -0 -0 -0 -0 -0 -0 -0 -0 -0 -0 -0 -0 -0 -0 -0 -0 -0 -0 -0 -0 -0 -0 -0
-0 -0 -0 -0 -0 -0 -0 -0 -0 -0 -0 -0 -0 -0 -0 -0 -0 -0 -0 -0 -0 -0 -0 -0 -0 -0 -0 -0 -0 -0 -0 -0 -0 -0 -0 -0 -0 -0 -0 -0 -0 -0 -0 -0
-0 -0 -0 -0 -0 -0 -0 -0 -0 -0 -0 -0 -0 -0 -0 -0 -0 -0 -0 -0 -0 -0 -0 -0 -0 -0 -0 -0 -0 -0 -0 -0 -0 -0 -0 -0 -0 -0 -0 -0 -0 -0 -0 -0
-0 -0 -0 -0 -0 -0 -0 -0 -0 -0 -0 -0 -0 -0 -0 -0 -0 -0 -0 -0 -0 -0 -0 -0 -0 -0 -0 -0 -0 -0 -0 -0 -0 -0 -0 -0 -0 -0 -0 -0 -0 -0 -0 -0
-0 -0 -0 -0 -0 -0 -0 -0 -0 -0 -0 -0 -0 -0 -0 -0 -0 -0 -0 -0 -0 -0 -0 -0 -0 -0 -0 -0 -0 -0 -0 -0 -0 -0 -0 -0 -0 -0 -0 -0 -0 -0 -0 -0
-0 -0 -0 -0 -0 -0 -0 -0 -0 -0 -0 -0 -0 -0 -0 -0 -0 -0 -0 -0 -0 -0 -0 -0 -0 -0 -0 -0 -0 -0 -0 -0 -0 -0 -0 -0 -0 -0 -0 -0 -0 -0 -0 -0
-0 -0 -0 -0 -0 -0 -0 -0 -0 -0 -0 -0 -0 -0 -0 -0 -0 -0 -0 -0 -0 -0 -0 -0 -0 -0 -0 -0 -0 -0 -0 -0 -0 -0 -0 -0 -0 -0 -0 -0 -0 -0 -0 -0
-0 -0 -0 -0 -0 -0 -0 -0 -0 -0 -0 -0 -0 -0 -0 -0 -0 -0 -0 -0 -0 -0 -0 -0 -0 -0 -0 -0 -0 -0 -0 -0 -0 -0 -0 -0 -0 -0 -0 -0 -0 -0 -0 -0
-0 -0 -0 -0 -0 -0 -0 -0 -0 -0 -0 -0 -0 -0 -0 -0 -0 -0 -0 -0 -0 -0 -0 -0 -0 -0 -0 -0 -0 -0 -0 -0 -0 -0 -0 -0 -0 -0 -0 -0 -0 -0 -0 -0
-0 -0 -0 -0 -0 -0 -0 -0 -0 -0 -0 -0 -0 -0 -0 -0 -0 -0 -0 -0 -0 -0 -0 -0 -0 -0 -0 -0 -0 -0 -0 -0 -0 -0 -0 -0 -0 -0 -0 -0 -0 -0 -0 -0
-0 -0 -0 -0 -0 -0 -0 -0 -0 -0 -0 -0 -0 -0 -0 -0 -0 -0 -0 -0 -0 -0 -0 -0 -0 -0 -0 -0 -0 -0 -0 -0 -0 -0 -0 -0 -0 -0 -0 -0 -0 -0 -0 -0
-0 -0 -0 -0 -0 -0 -0 -0 -0 -0 -0 -0 -0 -0 -0 -0 -0 -0 -0 -0 -0 -0 -0 -0 -0 -0 -0 -0 -0 -0 -0 -0 -0 -0 -0 -0 -0 -0 -0 -0 -0 -0 -0 -0
-0 -0 -0 -0 -0 -0 -0 -0 -0 -0 -0 -0 -0 -0 -0 -0 -0 -0 -0 -0 -0 -0 -0 -0 -0 -0 -0 -0 -0 -0 -0 -0 -0 -0 -0 -0 -0 -0 -0 -0 -0 -0 -0 -0
-0 -0 -0 -0 -0 -0 -0 -0 -0 -0 -0 -0 -0 -0 -0 -0 -0 -0 -0 -0 -0 -0 -0 -0 -0 -0 -0 -0 -0 -0 -0 -0 -0 -0 -0 -0 -0 -1 -0 -0 -0 -0 -0 -0
-0 -0 -0 -0 -0 -0 -0 -0 -0 -0 -0 -0 -0 -0 -0 -0 -0 -0 -0 -0 -0 -0 -0 -0 -0 -0 -0 -0 -0 -0 -0 -0 -0 -0 -0 -0 -0 -1 -0 -0 -0 -0 -0 -0
-0 -0 -0 -0 -0 -0 -0 -0 -0 -0 -0 -0 -0 -0 -0 -0 -0 -0 -0 -0 -0 -0 -0 -0 -0 -0 -0 -0 -0 -0 -0 -0 -0 -0 -0 -0 -0 -1 -0 -0 -0 -0 -0 -0
Wind_Speed
17 19 22 19 19 23 21 23 26 25 23 25 27 28 29 23 18 16 14 11 8 7 6 5 5 5 6 6 7 7 9 11 13 16 18 20 23 24 26 28 30 31 32 34
17 24 23 19 17 21 24 26 27 26 23 24 29 33 33 27 23 16 13 11 10 8 7 5 4 4 4 5 5 7 9 11 14 17 19 21 23 24 26 28 31 31 34 35
18 19 15 17 17 19 20 23 25 27 27 25 32 33 27 25 25 23 18 14 11 8 6 4 3 3 4 4 5 6 9 12 15 18 20 22 25 26 28 30 33 33 34 36
18 17 16 17 19 19 24 22 22 24 28 29 27 36 32 27 27 25 22 14 8 5 5 4 3 4 3 5 7 10 12 15 17 18 21 25 28 31 30 33 33 36 36 38
18 17 18 19 20 19 21 19 22 24 26 30 28 29 27 26 23 26 23 16 10 2 3 3 3 4 6 9 11 13 15 17 18 19 23 27 29 31 33 34 37 38 39 40
17 16 17 17 16 17 14 20 23 24 26 30 26 23 25 24 23 24 24 19 13 7 3 4 6 9 10 13 15 17 18 20 20 23 26 28 31 33 36 38 40 42 43 45
19 19 18 17 18 18 19 22 28 28 27 27 23 23 23 23 23 24 25 20 14 11 10 7 8 11 14 15 18 20 20 21 23 26 27 28 31 34 37 39 42 46 48 48
19 21 18 19 19 19 18 19 22 30 29 28 22 25 21 22 23 23 21 18 15 15 15 15 17 19 20 21 21 20 20 22 25 27 28 30 33 36 39 42 45 47 48 48
17 19 17 17 16 16 17 19 17 23 25 29 25 22 20 21 21 21 21 20 20 21 20 22 22 22 21 20 20 21 23 25 26 28 30 33 36 40 43 45 46 48 49 49
16 19 18 17 15 18 17 13 21 21 27 29 24 23 22 21 20 22 23 24 25 24 24 25 24 24 22 22 21 22 23 25 27 30 33 37 40 41 43 46 49 50 49 48
15 17 18 16 17 16 17 19 19 18 21 27 30 25 19 19 21 24 25 25 26 27 26 26 25 24 23 23 23 24 25 27 31 34 37 39 40 42 44 47 47 48 48 49
15 16 19 18 16 16 17 17 16 21 23 22 25 28 19 20 22 24 25 25 25 26 27 27 26 26 25 25 25 26 28 31 33 36 38 40 41 44 45 47 47 47 49 47
13 17 20 20 18 17 18 17 17 18 21 23 27 28 20 21 25 25 24 26 26 27 29 30 30 30 29 28 27 29 32 35 37 39 40 41 44 45 46 48 48 47 48 48
14 16 17 21 20 19 20 19 17 19 25 27 27 30 26 28 26 25 25 24 25 28 30 32 34 35 32 31 31 33 34 36 38 39 41 43 45 45 46 47 47 48 47 46
16 19 19 20 20 22 22 23 22 24 25 29 32 31 29 25 22 22 24 25 28 31 33 35 38 38 35 32 31 32 34 36 38 41 42 43 44 44 45 47 47 46 45 43
17 20 21 23 23 26 28 26 25 25 25 26 29 30 22 19 20 24 26 28 30 32 35 40 40 39 36 32 31 33 35 37 38 40 41 43 45 45 46 46 46 45 44 43
19 20 24 27 27 29 32 26 21 21 19 22 28 25 19 21 24 28 29 30 34 35 38 42 40 39 36 30 30 33 35 37 39 40 42 44 45 46 46 45 45 46 45 41
18 21 23 28 28 31 23 20 22 21 21 20 22 20 21 23 24 27 29 32 37 38 40 40 39 38 30 29 31 33 35 37 39 41 43 44 45 46 45 45 46 44 41 39
19 18 24 26 26 28 25 21 20 22 24 18 20 21 22 25 28 31 28 34 37 38 38 38 36 31 29 31 33 35 38 38 41 43 43 44 44 45 45 46 44 42 38 38
19 18 20 23 27 29 23 19 17 20 30 16 19 22 26 29 39 35 33 37 37 39 40 39 32 29 31 33 34 37 39 40 43 43 43 43 43 44 44 42 40 37 36 36
20 20 19 20 25 25 18 16 17 29 31 18 21 25 28 31 30 32 36 38 38 38 39 32 29 31 33 34 35 38 40 42 41 41 43 43 43 43 40 38 38 36 37 35
16 17 19 19 23 30 12 16 23 24 21 21 24 25 27 28 31 34 37 40 40 40 36 30 31 33 34 34 36 39 41 40 40 42 43 43 43 42 38 39 36 34 34 33
16 13 18 13 18 17 13 18 18 19 21 21 23 25 28 32 34 35 37 39 38 37 33 30 32 34 34 35 36 39 38 39 41 42 44 44 43 38 38 37 35 34 34 35
10 9 9 13 18 16 15 17 18 19 19 20 22 26 28 31 33 35 36 38 37 35 33 32 33 34 36 35 34 34 35 37 41 42 45 41 39 40 37 35 32 30 28 21
7 9 11 12 18 20 17 16 15 17 19 21 24 26 28 29 32 34 36 36 35 32 31 31 32 33 34 32 33 33 33 37 39 42 40 40 38 37 35 32 29 12 17 22
9 13 14 18 19 20 20 14 14 17 20 22 25 27 28 28 32 33 35 35 32 31 31 31 30 30 31 31 32 31 31 36 40 40 39 39 38 36 31 26 12 19 21 36
Wind_Direction
259 258 257 268 276 280 294 298 297 302 311 309 309 310 311 317 313 306 298 289 286 291 312 311 325 344 349 351 354 358 359 357 356 351 348 344 340 342 343 344 343 343 342 341
261 259 270 284 287 288 290 292 296 303 311 312 311 308 310 315 314 308 294 283 275 286 294 299 315 328 340 349 356 350 347 346 344 343 343 343 341 340 340 341 341 341 339 339
264 275 283 284 288 293 298 299 302 304 310 315 312 310 322 327 323 322 318 307 286 260 263 275 292 307 330 334 343 346 339 337 336 338 340 339 337 336 335 336 337 338 337 336
272 280 286 290 291 297 294 305 308 309 309 309 321 306 317 326 326 329 326 324 306 252 260 274 277 299 310 320 334 332 329 329 330 332 333 331 330 329 332 332 334 333 335 334
272 281 284 290 296 302 303 314 313 314 312 311 316 313 321 329 332 334 338 344 343 307 238 241 250 262 304 318 320 323 324 324 328 329 329 328 328 329 329 329 329 329 331 332
282 293 298 301 310 314 322 315 316 316 314 308 318 318 322 330 332 334 338 341 349 359 335 301 305 312 311 316 317 319 321 322 325 326 325 325 326 327 327 327 327 327 328 327
283 288 299 307 307 314 315 313 306 307 311 310 325 322 321 332 334 334 333 338 349 353 347 329 313 312 312 312 316 319 321 322 325 326 327 327 327 327 327 326 326 325 325 325
282 286 299 306 306 309 314 315 309 304 307 312 326 317 328 336 338 341 346 350 353 348 346 340 330 322 319 317 319 320 322 323 325 326 327 328 328 327 326 326 325 324 324 324
294 295 310 318 321 320 319 314 326 315 317 312 317 324 332 338 343 349 352 353 346 342 342 337 334 332 329 328 326 325 324 325 327 328 328 327 327 326 325 325 325 324 324 324
304 301 311 315 324 324 321 335 319 321 311 311 320 322 323 331 337 340 341 343 343 342 340 338 337 336 334 333 332 332 331 329 329 328 327 327 326 326 326 326 324 324 324 324
315 311 315 321 318 318 320 318 321 325 320 313 313 319 334 333 334 333 338 341 342 342 342 343 342 344 343 341 337 334 332 331 329 328 327 327 328 327 327 326 326 326 325 324
321 324 314 319 329 328 326 323 323 316 317 320 319 316 333 335 336 336 336 339 341 342 342 344 345 343 341 338 336 333 332 330 330 330 328 328 328 328 327 327 327 327 326 326
333 322 316 320 326 326 323 324 324 324 323 315 315 318 329 332 334 337 336 336 337 339 340 340 341 339 337 335 332 331 330 329 329 329 329 329 329 329 329 328 328 328 327 327
333 326 321 316 323 329 324 325 326 321 315 315 312 315 323 323 326 331 335 339 340 340 339 338 336 334 333 331 330 329 329 331 331 332 331 330 330 330 330 330 330 329 329 328
331 321 323 321 324 323 320 318 318 314 314 311 316 316 321 327 332 337 338 337 337 336 336 335 332 331 331 330 330 331 332 332 333 332 332 332 332 332 331 331 331 331 331 331
330 323 325 321 323 321 316 317 316 315 316 314 316 318 328 338 339 337 336 335 334 333 333 332 331 331 330 330 330 332 333 334 335 334 334 334 333 333 332 332 333 333 332 333
329 326 323 317 324 322 316 324 323 325 329 326 321 329 338 336 335 333 335 334 332 330 330 331 331 331 331 333 334 334 335 336 336 335 335 334 334 333 333 334 333 333 333 334
331 328 326 318 324 315 331 341 335 329 331 333 334 338 338 335 336 335 336 335 333 332 331 331 332 332 336 337 336 337 337 337 336 336 336 335 335 334 334 334 334 334 335 336
334 333 325 322 322 323 329 335 334 333 331 337 334 335 335 337 335 335 340 337 334 333 333 333 334 337 338 337 337 336 335 337 336 336 336 337 337 335 335 334 336 336 338 338
342 342 331 329 323 322 335 345 352 346 324 341 337 334 334 334 327 332 338 337 336 335 334 333 337 338 337 337 337 336 335 336 336 337 337 338 338 337 336 337 338 340 340 339
336 336 330 329 326 329 336 346 352 328 328 341 339 335 334 332 334 336 337 337 337 337 337 339 340 339 338 338 338 336 336 336 337 337 337 338 338 338 339 340 341 342 341 342
342 342 339 340 333 329 359 347 330 335 342 340 338 338 338 337 337 337 337 337 338 338 340 341 339 338 338 339 338 336 336 337 337 337 338 338 339 340 341 342 344 345 345 347
345 352 347 347 346 350 346 339 342 342 340 340 341 341 339 337 338 338 338 339 340 342 343 342 340 339 340 340 339 337 338 338 338 339 338 338 340 344 345 345 346 347 348 347
4 5 3 356 349 337 340 344 343 345 344 344 343 342 341 340 341 341 341 341 341 343 343 343 341 341 341 343 344 343 343 342 339 339 337 344 345 345 348 349 351 354 357 358
22 21 351 337 338 341 339 338 341 343 345 344 343 343 343 343 342 342 341 342 342 343 344 344 343 343 344 346 346 347 347 345 343 339 346 346 348 349 351 354 357 353 4 4
351 339 335 334 342 339 340 338 344 343 343 343 344 345 346 345 343 344 343 343 343 342 343 343 344 345 347 348 348 349 351 348 343 345 348 349 350 350 356 328 326 10 10 352